Time,TemperatureF,DewpointF,PressureIn,WindDirection,WindDirectionDegrees,WindSpeedMPH,WindSpeedGustMPH,Humidity,HourlyPrecipIn,Conditions,Clouds,dailyrainin,SoftwareType,DateUTC
2013-01-05 00:01:00,37.0,35.4,30.07,North,5,0.0,0.0,94,0.00,,FEW,0.00,VWS V14.01,2013-01-05 08:01:00,
2013-01-05 00:06:00,37.0,35.4,30.07,North,5,0.0,0.0,94,0.00,,FEW,0.00,VWS V14.01,2013-01-05 08:06:00,
2013-01-05 00:11:00,37.0,35.4,30.07,North,5,0.0,0.0,94,0.00,,FEW,0.00,VWS V14.01,2013-01-05 08:11:00,
2013-01-05 00:16:00,37.0,35.4,30.08,North,5,0.0,0.0,94,0.00,,FEW,0.00,VWS V14.01,2013-01-05 08:16:00,
2013-01-05 00:21:00,37.0,35.4,30.08,North,5,0.0,0.0,94,0.00,,FEW,0.00,VWS V14.01,2013-01-05 08:21:00,
2013-01-05 00:26:00,37.0,35.4,30.08,North,5,0.0,0.0,94,0.00,,FEW,0.00,VWS V14.01,2013-01-05 08:26:00,
2013-01-05 00:31:00,37.2,35.6,30.08,North,5,0.0,0.0,94,0.00,,FEW,0.00,VWS V14.01,2013-01-05 08:31:00,
2013-01-05 00:36:00,37.2,35.6,30.08,North,5,0.0,0.0,94,0.00,,FEW,0.00,VWS V14.01,2013-01-05 08:36:00,
2013-01-05 00:41:00,37.2,35.6,30.08,North,5,0.0,0.0,94,0.00,,FEW,0.00,VWS V14.01,2013-01-05 08:41:00,
2013-01-05 00:46:00,37.2,35.6,30.07,North,5,0.0,0.0,94,0.00,,FEW,0.00,VWS V14.01,2013-01-05 08:46:00,
2013-01-05 00:51:00,37.2,35.6,30.07,North,5,0.0,0.0,94,0.00,,FEW,0.00,VWS V14.01,2013-01-05 08:51:00,
2013-01-05 00:56:00,37.0,35.4,30.07,North,5,0.0,0.0,94,0.00,,FEW,0.00,VWS V14.01,2013-01-05 08:56:00,
2013-01-05 01:01:00,37.0,35.4,30.08,North,5,0.0,0.0,94,0.00,,FEW,0.00,VWS V14.01,2013-01-05 09:01:00,
2013-01-05 01:06:00,36.9,35.3,30.08,North,5,0.0,0.0,94,0.00,,FEW,0.00,VWS V14.01,2013-01-05 09:06:00,
2013-01-05 01:11:00,36.8,35.2,30.08,North,5,0.0,0.0,94,0.00,,FEW,0.00,VWS V14.01,2013-01-05 09:11:00,
2013-01-05 01:16:00,36.8,35.2,30.08,North,5,0.0,0.0,94,0.00,,FEW,0.00,VWS V14.01,2013-01-05 09:16:00,
2013-01-05 01:21:00,36.8,35.2,30.08,North,5,0.0,0.0,94,0.00,,FEW,0.00,VWS V14.01,2013-01-05 09:21:00,
2013-01-05 01:26:00,36.8,35.2,30.08,North,5,0.0,0.0,94,0.00,,FEW,0.00,VWS V14.01,2013-01-05 09:26:00,
2013-01-05 01:31:00,36.8,35.2,30.08,North,5,0.0,0.0,94,0.00,,FEW,0.00,VWS V14.01,2013-01-05 09:31:00,
2013-01-05 01:37:00,36.8,35.5,30.08,North,5,0.0,0.0,95,0.00,,FEW,0.00,VWS V14.01,2013-01-05 09:37:00,
2013-01-05 01:42:00,36.8,35.5,30.08,North,5,0.0,0.0,95,0.00,,FEW,0.00,VWS V14.01,2013-01-05 09:42:00,
2013-01-05 01:47:00,36.8,35.2,30.08,North,5,0.0,0.0,94,0.00,,FEW,0.00,VWS V14.01,2013-01-05 09:47:00,
2013-01-05 01:52:00,36.6,35.0,30.08,North,5,0.0,0.0,94,0.00,,FEW,0.00,VWS V14.01,2013-01-05 09:52:00,
2013-01-05 01:57:00,36.8,35.5,30.08,North,5,0.0,0.0,95,0.00,,FEW,0.00,VWS V14.01,2013-01-05 09:57:00,
2013-01-05 02:02:00,36.8,35.5,30.08,North,5,0.0,0.0,95,0.00,,FEW,0.00,VWS V14.01,2013-01-05 10:02:00,
2013-01-05 02:07:00,36.8,35.5,30.08,North,5,0.0,1.0,95,0.00,,FEW,0.00,VWS V14.01,2013-01-05 10:07:00,
2013-01-05 02:12:00,36.8,35.5,30.08,North,5,0.0,1.0,95,0.00,,FEW,0.00,VWS V14.01,2013-01-05 10:12:00,
2013-01-05 02:17:00,36.8,35.5,30.09,North,5,0.0,1.0,95,0.00,,FEW,0.00,VWS V14.01,2013-01-05 10:17:00,
2013-01-05 02:22:00,36.8,35.5,30.09,North,5,0.0,1.0,95,0.00,,FEW,0.00,VWS V14.01,2013-01-05 10:22:00,
2013-01-05 02:27:00,36.9,35.6,30.09,North,5,0.0,1.0,95,0.00,,FEW,0.00,VWS V14.01,2013-01-05 10:27:00,
2013-01-05 02:32:00,36.9,35.6,30.08,North,5,0.0,0.0,95,0.00,,FEW,0.00,VWS V14.01,2013-01-05 10:32:00,
2013-01-05 02:37:00,36.9,35.6,30.08,North,5,0.0,0.0,95,0.00,,FEW,0.00,VWS V14.01,2013-01-05 10:37:00,
2013-01-05 02:42:00,36.9,35.6,30.08,North,5,0.0,0.0,95,0.00,,FEW,0.00,VWS V14.01,2013-01-05 10:42:00,
2013-01-05 02:47:00,36.9,35.6,30.09,North,5,0.0,0.0,95,0.00,,FEW,0.00,VWS V14.01,2013-01-05 10:47:00,
2013-01-05 02:52:00,36.9,35.6,30.09,North,5,0.0,0.0,95,0.00,,FEW,0.00,VWS V14.01,2013-01-05 10:52:00,
2013-01-05 02:57:00,36.8,35.5,30.09,North,5,0.0,0.0,95,0.00,,FEW,0.00,VWS V14.01,2013-01-05 10:57:00,
2013-01-05 03:02:00,36.8,35.5,30.09,North,5,0.0,0.0,95,0.00,,FEW,0.00,VWS V14.01,2013-01-05 11:02:00,
2013-01-05 03:07:00,36.8,35.5,30.09,North,5,0.0,0.0,95,0.00,,FEW,0.00,VWS V14.01,2013-01-05 11:07:00,
2013-01-05 03:12:00,36.8,35.5,30.09,North,5,0.0,0.0,95,0.00,,FEW,0.00,VWS V14.01,2013-01-05 11:12:00,
2013-01-05 03:17:00,36.8,35.5,30.09,North,5,0.0,0.0,95,0.00,,FEW,0.00,VWS V14.01,2013-01-05 11:17:00,
2013-01-05 03:22:00,36.6,35.3,30.09,North,5,0.0,0.0,95,0.00,,FEW,0.00,VWS V14.01,2013-01-05 11:22:00,
2013-01-05 03:27:00,36.6,35.3,30.09,North,5,0.0,0.0,95,0.00,,FEW,0.00,VWS V14.01,2013-01-05 11:27:00,
2013-01-05 03:32:00,36.6,35.3,30.09,North,5,0.0,0.0,95,0.00,,FEW,0.00,VWS V14.01,2013-01-05 11:32:00,
2013-01-05 03:37:00,36.8,35.5,30.09,North,5,0.0,0.0,95,0.00,,FEW,0.00,VWS V14.01,2013-01-05 11:37:00,
2013-01-05 03:42:00,36.6,35.3,30.09,North,5,0.0,0.0,95,0.00,,FEW,0.00,VWS V14.01,2013-01-05 11:42:00,
2013-01-05 03:47:00,36.8,35.5,30.09,North,5,0.0,0.0,95,0.00,,FEW,0.00,VWS V14.01,2013-01-05 11:47:00,
2013-01-05 03:52:00,36.8,35.5,30.09,North,5,0.0,0.0,95,0.00,,FEW,0.00,VWS V14.01,2013-01-05 11:52:00,
2013-01-05 03:57:00,36.8,35.5,30.09,North,5,0.0,0.0,95,0.00,,FEW,0.00,VWS V14.01,2013-01-05 11:57:00,
2013-01-05 04:02:00,36.8,35.5,30.09,North,5,0.0,0.0,95,0.00,,FEW,0.00,VWS V14.01,2013-01-05 12:02:00,
2013-01-05 04:07:00,36.8,35.5,30.09,North,5,0.0,0.0,95,0.00,,FEW,0.00,VWS V14.01,2013-01-05 12:07:00,
2013-01-05 04:12:00,36.8,35.5,30.09,North,5,0.0,0.0,95,0.00,,FEW,0.00,VWS V14.01,2013-01-05 12:12:00,
2013-01-05 04:17:00,36.8,35.5,30.08,North,5,0.0,0.0,95,0.00,,FEW,0.00,VWS V14.01,2013-01-05 12:17:00,
2013-01-05 04:22:00,36.8,35.5,30.08,North,5,0.0,0.0,95,0.00,,FEW,0.00,VWS V14.01,2013-01-05 12:22:00,
2013-01-05 04:27:00,36.8,35.5,30.08,North,5,0.0,0.0,95,0.00,,FEW,0.00,VWS V14.01,2013-01-05 12:27:00,
2013-01-05 04:32:00,36.8,35.5,30.08,North,5,0.0,0.0,95,0.00,,FEW,0.00,VWS V14.01,2013-01-05 12:32:00,
2013-01-05 04:37:00,36.9,35.6,30.08,North,5,0.0,0.0,95,0.00,,FEW,0.00,VWS V14.01,2013-01-05 12:37:00,
2013-01-05 04:43:00,36.9,35.6,30.08,North,5,0.0,0.0,95,0.00,,FEW,0.00,VWS V14.01,2013-01-05 12:43:00,
2013-01-05 04:48:00,36.8,35.5,30.08,North,5,0.0,0.0,95,0.00,,FEW,0.00,VWS V14.01,2013-01-05 12:48:00,
2013-01-05 04:53:00,36.6,35.3,30.08,North,5,0.0,0.0,95,0.00,,FEW,0.00,VWS V14.01,2013-01-05 12:53:00,
2013-01-05 04:58:00,36.6,35.3,30.08,North,5,0.0,0.0,95,0.00,,FEW,0.00,VWS V14.01,2013-01-05 12:58:00,
2013-01-05 05:03:00,36.6,35.3,30.08,North,5,0.0,0.0,95,0.00,,FEW,0.00,VWS V14.01,2013-01-05 13:03:00,
2013-01-05 05:08:00,36.5,35.2,30.08,North,5,0.0,0.0,95,0.00,,FEW,0.00,VWS V14.01,2013-01-05 13:08:00,
2013-01-05 05:13:00,36.5,35.2,30.08,North,5,0.0,0.0,95,0.00,,FEW,0.00,VWS V14.01,2013-01-05 13:13:00,
2013-01-05 05:18:00,36.5,35.2,30.07,North,5,0.0,0.0,95,0.00,,FEW,0.00,VWS V14.01,2013-01-05 13:18:00,
2013-01-05 05:23:00,36.5,35.2,30.07,North,5,0.0,0.0,95,0.00,,FEW,0.00,VWS V14.01,2013-01-05 13:23:00,
2013-01-05 05:28:00,36.5,35.2,30.07,North,5,0.0,0.0,95,0.00,,FEW,0.00,VWS V14.01,2013-01-05 13:28:00,
2013-01-05 05:33:00,36.6,35.3,30.08,North,5,0.0,0.0,95,0.00,,FEW,0.00,VWS V14.01,2013-01-05 13:33:00,
2013-01-05 05:38:00,36.6,35.3,30.08,North,5,0.0,0.0,95,0.00,,FEW,0.00,VWS V14.01,2013-01-05 13:38:00,
2013-01-05 05:43:00,36.6,35.3,30.08,North,5,0.0,0.0,95,0.00,,FEW,0.00,VWS V14.01,2013-01-05 13:43:00,
2013-01-05 05:48:00,36.6,35.3,30.08,North,5,0.0,0.0,95,0.00,,FEW,0.00,VWS V14.01,2013-01-05 13:48:00,
2013-01-05 05:53:00,36.6,35.3,30.08,North,5,0.0,0.0,95,0.00,,FEW,0.00,VWS V14.01,2013-01-05 13:53:00,
2013-01-05 05:58:00,36.6,35.3,30.08,North,5,0.0,0.0,95,0.00,,FEW,0.00,VWS V14.01,2013-01-05 13:58:00,
2013-01-05 06:03:00,36.6,35.3,30.08,North,5,0.0,0.0,95,0.00,,FEW,0.00,VWS V14.01,2013-01-05 14:03:00,
2013-01-05 06:08:00,36.6,35.3,30.08,North,5,0.0,1.0,95,0.00,,FEW,0.00,VWS V14.01,2013-01-05 14:08:00,
2013-01-05 06:13:00,36.6,35.3,30.08,North,5,0.0,1.0,95,0.00,,FEW,0.00,VWS V14.01,2013-01-05 14:13:00,
2013-01-05 06:18:00,36.5,35.2,30.08,North,5,0.0,1.0,95,0.00,,FEW,0.00,VWS V14.01,2013-01-05 14:18:00,
2013-01-05 06:23:00,36.5,35.2,30.08,North,5,0.0,1.0,95,0.00,,FEW,0.00,VWS V14.01,2013-01-05 14:23:00,
2013-01-05 06:28:00,36.6,35.3,30.08,North,5,0.0,1.0,95,0.00,,FEW,0.00,VWS V14.01,2013-01-05 14:28:00,
2013-01-05 06:33:00,36.8,35.5,30.09,North,5,0.0,0.0,95,0.00,,FEW,0.00,VWS V14.01,2013-01-05 14:33:00,
2013-01-05 06:38:00,36.8,35.5,30.09,North,5,0.0,0.0,95,0.00,,FEW,0.00,VWS V14.01,2013-01-05 14:38:00,
2013-01-05 06:43:00,36.8,35.5,30.09,North,5,0.0,0.0,95,0.00,,FEW,0.00,VWS V14.01,2013-01-05 14:43:00,
2013-01-05 06:48:00,36.8,35.5,30.09,North,5,0.0,0.0,95,0.00,,FEW,0.00,VWS V14.01,2013-01-05 14:48:00,
2013-01-05 06:53:00,36.8,35.5,30.09,North,5,0.0,0.0,95,0.00,,FEW,0.00,VWS V14.01,2013-01-05 14:53:00,
2013-01-05 06:59:00,36.9,35.6,30.09,North,5,0.0,0.0,95,0.00,,FEW,0.00,VWS V14.01,2013-01-05 14:59:00,
2013-01-05 07:04:00,36.9,35.6,30.09,North,5,0.0,0.0,95,0.00,,FEW,0.00,VWS V14.01,2013-01-05 15:04:00,
2013-01-05 07:09:00,36.9,35.6,30.09,North,5,0.0,0.0,95,0.00,,FEW,0.00,VWS V14.01,2013-01-05 15:09:00,
2013-01-05 07:14:00,36.9,35.6,30.09,North,5,0.0,0.0,95,0.00,,FEW,0.00,VWS V14.01,2013-01-05 15:14:00,
2013-01-05 07:19:00,36.9,35.6,30.09,North,5,0.0,0.0,95,0.00,,FEW,0.00,VWS V14.01,2013-01-05 15:19:00,
2013-01-05 07:24:00,36.9,35.6,30.09,North,5,0.0,0.0,95,0.00,,FEW,0.00,VWS V14.01,2013-01-05 15:24:00,
2013-01-05 07:29:00,36.9,35.6,30.09,North,5,0.0,0.0,95,0.00,,FEW,0.00,VWS V14.01,2013-01-05 15:29:00,
2013-01-05 07:34:00,36.9,35.6,30.09,North,5,0.0,0.0,95,0.00,,FEW,0.00,VWS V14.01,2013-01-05 15:34:00,
2013-01-05 07:39:00,36.9,35.6,30.09,North,5,0.0,0.0,95,0.00,,FEW,0.00,VWS V14.01,2013-01-05 15:39:00,
2013-01-05 07:44:00,36.9,35.6,30.09,North,5,0.0,0.0,95,0.00,,FEW,0.00,VWS V14.01,2013-01-05 15:44:00,
2013-01-05 07:49:00,36.9,35.6,30.09,North,5,0.0,0.0,95,0.00,,FEW,0.00,VWS V14.01,2013-01-05 15:49:00,
2013-01-05 07:54:00,36.8,35.5,30.09,North,5,0.0,0.0,95,0.00,,FEW,0.00,VWS V14.01,2013-01-05 15:54:00,
2013-01-05 07:59:00,36.8,35.5,30.09,North,5,0.0,0.0,95,0.00,,FEW,0.00,VWS V14.01,2013-01-05 15:59:00,
2013-01-05 08:04:00,36.9,35.6,30.09,North,5,0.0,0.0,95,0.00,,FEW,0.00,VWS V14.01,2013-01-05 16:04:00,
2013-01-05 08:09:00,36.9,35.6,30.09,North,5,0.0,0.0,95,0.00,,FEW,0.00,VWS V14.01,2013-01-05 16:09:00,
2013-01-05 08:14:00,36.9,35.6,30.09,North,5,0.0,0.0,95,0.00,,FEW,0.00,VWS V14.01,2013-01-05 16:14:00,
2013-01-05 08:19:00,36.9,35.6,30.09,North,5,0.0,0.0,95,0.00,,FEW,0.00,VWS V14.01,2013-01-05 16:19:00,
2013-01-05 08:24:00,37.0,35.7,30.09,North,5,0.0,0.0,95,0.00,,FEW,0.00,VWS V14.01,2013-01-05 16:24:00,
2013-01-05 08:29:00,37.0,35.7,30.09,North,5,0.0,1.0,95,0.00,,FEW,0.00,VWS V14.01,2013-01-05 16:29:00,
2013-01-05 08:34:00,37.2,35.9,30.09,North,5,0.0,0.0,95,0.00,,FEW,0.00,VWS V14.01,2013-01-05 16:34:00,
2013-01-05 08:39:00,37.2,36.2,30.09,North,5,0.0,0.0,96,0.00,,FEW,0.00,VWS V14.01,2013-01-05 16:39:00,
2013-01-05 08:44:00,37.2,36.2,30.10,North,5,0.0,0.0,96,0.00,,FEW,0.00,VWS V14.01,2013-01-05 16:44:00,
2013-01-05 08:49:00,37.3,36.0,30.10,North,5,0.0,0.0,95,0.00,,FEW,0.00,VWS V14.01,2013-01-05 16:49:00,
2013-01-05 08:54:00,37.3,36.3,30.10,North,5,0.0,0.0,96,0.00,,FEW,0.00,VWS V14.01,2013-01-05 16:54:00,
2013-01-05 08:59:00,37.5,36.5,30.10,North,5,0.0,0.0,96,0.00,,FEW,0.00,VWS V14.01,2013-01-05 16:59:00,
2013-01-05 09:04:00,37.5,36.5,30.10,North,5,0.0,0.0,96,0.00,,FEW,0.00,VWS V14.01,2013-01-05 17:04:00,
2013-01-05 09:09:00,37.5,36.5,30.10,North,5,0.0,0.0,96,0.00,,FEW,0.00,VWS V14.01,2013-01-05 17:09:00,
2013-01-05 09:14:00,37.5,36.5,30.10,North,5,0.0,0.0,96,0.00,,FEW,0.00,VWS V14.01,2013-01-05 17:14:00,
2013-01-05 09:20:00,37.5,36.5,30.10,North,5,0.0,0.0,96,0.00,,FEW,0.00,VWS V14.01,2013-01-05 17:20:00,
2013-01-05 09:25:00,37.5,36.5,30.10,North,5,0.0,0.0,96,0.00,,FEW,0.00,VWS V14.01,2013-01-05 17:25:00,
2013-01-05 09:30:00,37.6,36.6,30.10,North,5,0.0,0.0,96,0.00,,FEW,0.00,VWS V14.01,2013-01-05 17:30:00,
2013-01-05 09:35:00,37.8,36.8,30.10,North,5,0.0,0.0,96,0.00,,FEW,0.00,VWS V14.01,2013-01-05 17:35:00,
2013-01-05 09:40:00,38.0,37.0,30.10,ESE,111,3.0,4.0,96,0.00,,FEW,0.00,VWS V14.01,2013-01-05 17:40:00,
2013-01-05 09:45:00,38.2,37.2,30.10,ESE,111,0.0,4.0,96,0.00,,FEW,0.00,VWS V14.01,2013-01-05 17:45:00,
2013-01-05 09:50:00,38.2,37.2,30.10,SSE,147,0.0,4.0,96,0.00,,FEW,0.00,VWS V14.01,2013-01-05 17:50:00,
2013-01-05 09:55:00,38.3,37.3,30.10,SSE,147,0.0,4.0,96,0.00,,FEW,0.00,VWS V14.01,2013-01-05 17:55:00,
2013-01-05 10:00:00,38.3,37.3,30.11,SSE,147,0.0,4.0,96,0.00,,FEW,0.00,VWS V14.01,2013-01-05 18:00:00,
2013-01-05 10:05:00,38.3,37.3,30.11,SSE,147,0.0,0.0,96,0.00,,FEW,0.00,VWS V14.01,2013-01-05 18:05:00,
2013-01-05 10:10:00,38.5,37.5,30.11,SSE,147,0.0,0.0,96,0.00,,FEW,0.00,VWS V14.01,2013-01-05 18:10:00,
2013-01-05 10:15:00,38.5,37.5,30.12,SSE,147,0.0,0.0,96,0.00,,FEW,0.00,VWS V14.01,2013-01-05 18:15:00,
2013-01-05 10:20:00,38.6,37.6,30.12,SSE,147,0.0,0.0,96,0.00,,FEW,0.00,VWS V14.01,2013-01-05 18:20:00,
2013-01-05 10:25:00,38.8,37.8,30.12,SSE,147,0.0,0.0,96,0.00,,FEW,0.00,VWS V14.01,2013-01-05 18:25:00,
2013-01-05 10:30:00,38.8,37.8,30.12,SSE,147,0.0,0.0,96,0.00,,FEW,0.00,VWS V14.01,2013-01-05 18:30:00,
2013-01-05 10:35:00,38.9,37.9,30.12,SSE,147,0.0,0.0,96,0.00,,FEW,0.00,VWS V14.01,2013-01-05 18:35:00,
2013-01-05 10:40:00,39.1,38.1,30.12,SSE,147,0.0,0.0,96,0.00,,FEW,0.00,VWS V14.01,2013-01-05 18:40:00,
2013-01-05 10:45:00,39.2,38.2,30.12,SSE,147,0.0,0.0,96,0.00,,FEW,0.00,VWS V14.01,2013-01-05 18:45:00,
2013-01-05 10:50:00,39.3,38.3,30.12,SSE,147,0.0,0.0,96,0.01,,FEW,0.01,VWS V14.01,2013-01-05 18:50:00,
2013-01-05 10:55:00,39.5,38.5,30.12,SSE,147,0.0,0.0,96,0.01,,FEW,0.01,VWS V14.01,2013-01-05 18:55:00,
2013-01-05 11:00:00,39.5,38.5,30.12,SSE,147,0.0,0.0,96,0.01,,FEW,0.01,VWS V14.01,2013-01-05 19:00:00,
2013-01-05 11:05:00,39.5,38.5,30.12,SSE,147,0.0,0.0,96,0.01,,FEW,0.01,VWS V14.01,2013-01-05 19:05:00,
2013-01-05 11:10:00,39.5,38.5,30.12,SSE,147,0.0,0.0,96,0.02,,FEW,0.02,VWS V14.01,2013-01-05 19:10:00,
2013-01-05 11:15:00,39.6,38.6,30.12,SSE,147,0.0,0.0,96,0.02,,FEW,0.02,VWS V14.01,2013-01-05 19:15:00,
2013-01-05 11:20:00,39.8,38.8,30.12,SSE,147,0.0,0.0,96,0.02,,FEW,0.02,VWS V14.01,2013-01-05 19:20:00,
2013-01-05 11:25:00,39.9,38.8,30.12,SSE,147,0.0,0.0,96,0.02,,FEW,0.02,VWS V14.01,2013-01-05 19:25:00,
2013-01-05 11:30:00,40.1,39.0,30.11,SSE,147,0.0,0.0,96,0.02,,FEW,0.02,VWS V14.01,2013-01-05 19:30:00,
2013-01-05 11:35:00,40.1,39.0,30.11,SSE,147,0.0,0.0,96,0.03,,FEW,0.03,VWS V14.01,2013-01-05 19:35:00,
2013-01-05 11:40:00,40.1,39.0,30.11,North,5,2.0,3.0,96,0.03,,FEW,0.03,VWS V14.01,2013-01-05 19:40:00,
2013-01-05 11:45:00,40.2,39.2,30.10,North,5,0.0,3.0,96,0.03,,FEW,0.03,VWS V14.01,2013-01-05 19:45:00,
2013-01-05 11:50:00,40.3,39.2,30.10,North,354,0.0,3.0,96,0.03,,FEW,0.03,VWS V14.01,2013-01-05 19:50:00,
2013-01-05 11:55:00,40.6,39.5,30.10,NNW,331,0.0,3.0,96,0.03,,FEW,0.03,VWS V14.01,2013-01-05 19:55:00,
2013-01-05 12:00:00,41.1,40.0,30.09,NNW,331,0.0,0.0,96,0.02,,FEW,0.03,VWS V14.01,2013-01-05 20:00:00,
2013-01-05 12:05:00,41.3,40.2,30.09,NNW,331,0.0,2.0,96,0.02,,FEW,0.03,VWS V14.01,2013-01-05 20:05:00,
2013-01-05 12:10:00,41.6,40.5,30.09,NNW,331,0.0,2.0,96,0.02,,FEW,0.03,VWS V14.01,2013-01-05 20:10:00,
2013-01-05 12:15:00,41.9,40.8,30.09,South,177,1.0,5.0,96,0.02,,FEW,0.03,VWS V14.01,2013-01-05 20:15:00,
2013-01-05 12:21:00,42.2,41.1,30.09,South,183,2.0,6.0,96,0.02,,FEW,0.03,VWS V14.01,2013-01-05 20:21:00,
2013-01-05 12:26:00,42.9,41.0,30.09,SE,131,0.0,6.0,93,0.02,,FEW,0.03,VWS V14.01,2013-01-05 20:26:00,
2013-01-05 12:31:00,43.2,41.0,30.08,SE,133,0.0,0.0,92,0.01,,FEW,0.03,VWS V14.01,2013-01-05 20:31:00,
2013-01-05 12:36:00,43.3,41.1,30.08,SW,234,2.0,2.0,92,0.01,,FEW,0.03,VWS V14.01,2013-01-05 20:36:00,
2013-01-05 12:41:00,43.5,40.8,30.08,SW,229,0.0,4.0,90,0.01,,FEW,0.03,VWS V14.01,2013-01-05 20:41:00,
2013-01-05 12:46:00,43.6,41.2,30.06,SW,229,0.0,4.0,91,0.01,,FEW,0.03,VWS V14.01,2013-01-05 20:46:00,
2013-01-05 12:51:00,43.6,40.9,30.06,SW,219,0.0,4.0,90,0.01,,FEW,0.03,VWS V14.01,2013-01-05 20:51:00,
2013-01-05 12:56:00,43.8,41.1,30.06,SW,221,0.0,4.0,90,0.01,,FEW,0.03,VWS V14.01,2013-01-05 20:56:00,
2013-01-05 13:01:00,43.8,41.1,30.06,SE,127,0.0,0.0,90,0.00,,FEW,0.03,VWS V14.01,2013-01-05 21:01:00,
2013-01-05 13:06:00,43.9,41.2,30.06,SE,127,0.0,1.0,90,0.00,,FEW,0.03,VWS V14.01,2013-01-05 21:06:00,
2013-01-05 13:11:00,44.1,41.7,30.06,SE,127,0.0,1.0,91,0.00,,FEW,0.03,VWS V14.01,2013-01-05 21:11:00,
2013-01-05 13:16:00,44.1,41.7,30.05,SSW,197,0.0,1.0,91,0.00,,FEW,0.03,VWS V14.01,2013-01-05 21:16:00,
2013-01-05 13:21:00,44.2,41.7,30.05,SSW,197,0.0,1.0,91,0.00,,FEW,0.03,VWS V14.01,2013-01-05 21:21:00,
2013-01-05 13:26:00,44.2,42.0,30.05,SSW,197,0.0,1.0,92,0.00,,FEW,0.03,VWS V14.01,2013-01-05 21:26:00,
2013-01-05 13:31:00,44.3,42.1,30.05,SSW,197,0.0,0.0,92,0.00,,FEW,0.03,VWS V14.01,2013-01-05 21:31:00,
2013-01-05 13:36:00,44.3,42.1,30.05,SSW,200,0.0,1.0,92,0.00,,FEW,0.03,VWS V14.01,2013-01-05 21:36:00,
2013-01-05 13:41:00,44.5,42.3,30.05,WNW,297,0.0,2.0,92,0.00,,FEW,0.03,VWS V14.01,2013-01-05 21:41:00,
2013-01-05 13:46:00,44.5,42.3,30.05,WNW,297,0.0,2.0,92,0.00,,FEW,0.03,VWS V14.01,2013-01-05 21:46:00,
2013-01-05 13:51:00,44.5,42.3,30.05,WNW,297,0.0,2.0,92,0.00,,FEW,0.03,VWS V14.01,2013-01-05 21:51:00,
2013-01-05 13:56:00,44.6,42.4,30.05,WNW,297,0.0,2.0,92,0.00,,FEW,0.03,VWS V14.01,2013-01-05 21:56:00,
2013-01-05 14:01:00,44.6,42.4,30.05,WNW,297,0.0,0.0,92,0.00,,FEW,0.03,VWS V14.01,2013-01-05 22:01:00,
2013-01-05 14:06:00,44.5,42.3,30.05,WNW,297,0.0,0.0,92,0.00,,FEW,0.03,VWS V14.01,2013-01-05 22:06:00,
2013-01-05 14:11:00,44.5,42.3,30.05,WNW,297,0.0,0.0,92,0.00,,FEW,0.03,VWS V14.01,2013-01-05 22:11:00,
2013-01-05 14:16:00,44.5,42.3,30.04,WNW,297,0.0,0.0,92,0.00,,FEW,0.03,VWS V14.01,2013-01-05 22:16:00,
2013-01-05 14:21:00,44.2,42.0,30.04,WNW,297,0.0,1.0,92,0.00,,FEW,0.03,VWS V14.01,2013-01-05 22:21:00,
2013-01-05 14:26:00,44.2,42.0,30.04,WNW,297,0.0,1.0,92,0.00,,FEW,0.03,VWS V14.01,2013-01-05 22:26:00,
2013-01-05 14:31:00,44.1,41.9,30.04,WNW,297,0.0,0.0,92,0.00,,FEW,0.03,VWS V14.01,2013-01-05 22:31:00,
2013-01-05 14:36:00,44.1,41.9,30.04,WNW,297,0.0,0.0,92,0.00,,FEW,0.03,VWS V14.01,2013-01-05 22:36:00,
2013-01-05 14:41:00,44.1,41.9,30.04,WNW,297,0.0,0.0,92,0.00,,FEW,0.03,VWS V14.01,2013-01-05 22:41:00,
2013-01-05 14:46:00,43.5,41.3,30.04,WNW,297,0.0,0.0,92,0.00,,FEW,0.03,VWS V14.01,2013-01-05 22:46:00,
2013-01-05 14:51:00,43.3,41.1,30.04,WNW,297,0.0,0.0,92,0.00,,FEW,0.03,VWS V14.01,2013-01-05 22:51:00,
2013-01-05 14:56:00,43.5,41.3,30.04,WNW,297,0.0,0.0,92,0.00,,FEW,0.03,VWS V14.01,2013-01-05 22:56:00,
2013-01-05 15:01:00,43.5,41.6,30.05,WNW,297,0.0,0.0,93,0.00,,FEW,0.03,VWS V14.01,2013-01-05 23:01:00,
2013-01-05 15:06:00,43.6,41.7,30.05,WNW,297,0.0,0.0,93,0.00,,FEW,0.03,VWS V14.01,2013-01-05 23:06:00,
2013-01-05 15:11:00,43.6,41.7,30.05,WNW,297,0.0,2.0,93,0.00,,FEW,0.03,VWS V14.01,2013-01-05 23:11:00,
2013-01-05 15:16:00,43.5,41.6,30.05,WNW,297,0.0,2.0,93,0.00,,FEW,0.03,VWS V14.01,2013-01-05 23:16:00,
2013-01-05 15:21:00,43.5,41.6,30.05,WNW,297,0.0,2.0,93,0.00,,FEW,0.03,VWS V14.01,2013-01-05 23:21:00,
2013-01-05 15:26:00,43.5,41.6,30.05,WNW,301,0.0,2.0,93,0.00,,FEW,0.03,VWS V14.01,2013-01-05 23:26:00,
2013-01-05 15:31:00,43.3,41.4,30.04,WNW,301,0.0,0.0,93,0.00,,FEW,0.03,VWS V14.01,2013-01-05 23:31:00,
2013-01-05 15:36:00,43.3,41.4,30.04,WNW,301,0.0,0.0,93,0.00,,FEW,0.03,VWS V14.01,2013-01-05 23:36:00,
2013-01-05 15:41:00,43.3,41.4,30.04,WNW,301,0.0,0.0,93,0.00,,FEW,0.03,VWS V14.01,2013-01-05 23:41:00,
2013-01-05 15:46:00,43.2,41.3,30.04,WNW,301,0.0,0.0,93,0.00,,FEW,0.03,VWS V14.01,2013-01-05 23:46:00,
2013-01-05 15:51:00,43.2,41.3,30.04,WNW,301,0.0,0.0,93,0.00,,FEW,0.03,VWS V14.01,2013-01-05 23:51:00,
2013-01-05 15:56:00,43.1,41.2,30.04,WNW,301,0.0,0.0,93,0.00,,FEW,0.03,VWS V14.01,2013-01-05 23:56:00,
2013-01-05 16:01:00,43.1,41.2,30.04,WNW,301,1.0,1.0,93,0.00,,FEW,0.03,VWS V14.01,2013-01-06 00:01:00,
2013-01-05 16:06:00,42.9,41.0,30.04,WNW,301,0.0,1.0,93,0.00,,FEW,0.03,VWS V14.01,2013-01-06 00:06:00,
2013-01-05 16:11:00,42.8,40.9,30.04,WNW,301,0.0,1.0,93,0.00,,FEW,0.03,VWS V14.01,2013-01-06 00:11:00,
2013-01-05 16:16:00,42.8,40.9,30.03,WNW,301,0.0,1.0,93,0.00,,FEW,0.03,VWS V14.01,2013-01-06 00:16:00,
2013-01-05 16:21:00,42.6,40.7,30.03,WNW,301,0.0,1.0,93,0.00,,FEW,0.03,VWS V14.01,2013-01-06 00:21:00,
2013-01-05 16:26:00,42.5,40.6,30.03,WNW,301,0.0,1.0,93,0.00,,FEW,0.03,VWS V14.01,2013-01-06 00:26:00,
2013-01-05 16:31:00,42.3,40.4,30.03,WNW,301,0.0,1.0,93,0.00,,FEW,0.03,VWS V14.01,2013-01-06 00:31:00,
2013-01-05 16:36:00,42.1,40.2,30.03,WNW,301,0.0,1.0,93,0.00,,FEW,0.03,VWS V14.01,2013-01-06 00:36:00,
2013-01-05 16:41:00,41.9,40.0,30.03,WNW,301,0.0,1.0,93,0.00,,FEW,0.03,VWS V14.01,2013-01-06 00:41:00,
2013-01-05 16:46:00,41.8,39.9,30.03,WNW,301,0.0,1.0,93,0.00,,FEW,0.03,VWS V14.01,2013-01-06 00:46:00,
2013-01-05 16:52:00,41.6,39.7,30.03,WNW,301,0.0,1.0,93,0.00,,FEW,0.03,VWS V14.01,2013-01-06 00:52:00,
2013-01-05 16:57:00,41.3,39.4,30.03,WNW,301,0.0,1.0,93,0.00,,FEW,0.03,VWS V14.01,2013-01-06 00:57:00,
2013-01-05 17:02:00,41.2,39.3,30.03,WNW,301,0.0,0.0,93,0.00,,FEW,0.03,VWS V14.01,2013-01-06 01:02:00,
2013-01-05 17:07:00,40.9,39.0,30.03,WNW,301,0.0,2.0,93,0.00,,FEW,0.03,VWS V14.01,2013-01-06 01:07:00,
2013-01-05 17:12:00,40.8,38.9,30.03,WNW,301,0.0,2.0,93,0.00,,FEW,0.03,VWS V14.01,2013-01-06 01:12:00,
2013-01-05 17:17:00,40.6,38.7,30.03,WNW,301,0.0,2.0,93,0.00,,FEW,0.03,VWS V14.01,2013-01-06 01:17:00,
2013-01-05 17:22:00,40.5,38.6,30.03,WNW,301,0.0,2.0,93,0.00,,FEW,0.03,VWS V14.01,2013-01-06 01:22:00,
2013-01-05 17:27:00,40.5,38.6,30.03,WNW,301,0.0,2.0,93,0.00,,FEW,0.03,VWS V14.01,2013-01-06 01:27:00,
2013-01-05 17:32:00,40.3,38.4,30.03,WNW,301,0.0,0.0,93,0.00,,FEW,0.03,VWS V14.01,2013-01-06 01:32:00,
2013-01-05 17:37:00,40.2,38.3,30.03,WNW,301,0.0,0.0,93,0.00,,FEW,0.03,VWS V14.01,2013-01-06 01:37:00,
2013-01-05 17:42:00,40.1,38.2,30.03,WNW,301,0.0,0.0,93,0.00,,FEW,0.03,VWS V14.01,2013-01-06 01:42:00,
2013-01-05 17:47:00,40.1,38.2,30.03,WNW,301,0.0,0.0,93,0.00,,FEW,0.03,VWS V14.01,2013-01-06 01:47:00,
2013-01-05 17:52:00,39.9,38.3,30.03,WNW,301,0.0,0.0,94,0.00,,FEW,0.03,VWS V14.01,2013-01-06 01:52:00,
2013-01-05 17:57:00,39.9,38.3,30.03,WNW,301,0.0,0.0,94,0.00,,FEW,0.03,VWS V14.01,2013-01-06 01:57:00,
2013-01-05 18:02:00,39.8,38.2,30.03,WNW,301,0.0,0.0,94,0.00,,FEW,0.03,VWS V14.01,2013-01-06 02:02:00,
2013-01-05 18:07:00,39.6,38.0,30.03,WNW,301,0.0,0.0,94,0.00,,FEW,0.03,VWS V14.01,2013-01-06 02:07:00,
2013-01-05 18:12:00,39.6,37.8,30.03,WNW,301,0.0,0.0,93,0.00,,FEW,0.03,VWS V14.01,2013-01-06 02:12:00,
2013-01-05 18:17:00,39.3,37.5,30.04,WNW,301,0.0,0.0,93,0.00,,FEW,0.03,VWS V14.01,2013-01-06 02:17:00,
2013-01-05 18:22:00,39.2,37.6,30.04,WNW,301,0.0,0.0,94,0.00,,FEW,0.03,VWS V14.01,2013-01-06 02:22:00,
2013-01-05 18:27:00,39.2,37.6,30.04,WNW,301,0.0,0.0,94,0.00,,FEW,0.03,VWS V14.01,2013-01-06 02:27:00,
2013-01-05 18:32:00,39.1,37.5,30.05,WNW,301,0.0,0.0,94,0.00,,FEW,0.03,VWS V14.01,2013-01-06 02:32:00,
2013-01-05 18:37:00,39.1,37.5,30.05,WNW,301,0.0,0.0,94,0.00,,FEW,0.03,VWS V14.01,2013-01-06 02:37:00,
2013-01-05 18:42:00,39.1,37.5,30.05,WNW,301,0.0,0.0,94,0.00,,FEW,0.03,VWS V14.01,2013-01-06 02:42:00,
2013-01-05 18:47:00,38.9,37.3,30.04,WNW,301,0.0,0.0,94,0.00,,FEW,0.03,VWS V14.01,2013-01-06 02:47:00,
2013-01-05 18:52:00,38.9,37.3,30.04,WNW,301,0.0,0.0,94,0.00,,FEW,0.03,VWS V14.01,2013-01-06 02:52:00,
2013-01-05 18:57:00,38.9,37.3,30.04,WNW,301,0.0,0.0,94,0.00,,FEW,0.03,VWS V14.01,2013-01-06 02:57:00,
2013-01-05 19:02:00,38.9,37.3,30.05,WNW,301,0.0,0.0,94,0.00,,FEW,0.03,VWS V14.01,2013-01-06 03:02:00,
2013-01-05 19:07:00,38.9,37.3,30.05,WNW,301,0.0,0.0,94,0.00,,FEW,0.03,VWS V14.01,2013-01-06 03:07:00,
2013-01-05 19:12:00,38.8,37.2,30.05,WNW,301,0.0,0.0,94,0.00,,FEW,0.03,VWS V14.01,2013-01-06 03:12:00,
2013-01-05 19:17:00,38.6,37.0,30.03,WNW,301,0.0,0.0,94,0.00,,FEW,0.03,VWS V14.01,2013-01-06 03:17:00,
2013-01-05 19:22:00,38.5,36.9,30.03,WNW,301,0.0,0.0,94,0.00,,FEW,0.03,VWS V14.01,2013-01-06 03:22:00,
2013-01-05 19:27:00,38.5,36.9,30.03,WNW,301,0.0,0.0,94,0.00,,FEW,0.03,VWS V14.01,2013-01-06 03:27:00,
2013-01-05 19:32:00,38.6,37.0,30.03,WNW,301,0.0,0.0,94,0.00,,FEW,0.03,VWS V14.01,2013-01-06 03:32:00,
2013-01-05 19:37:00,38.6,37.0,30.03,WNW,301,0.0,0.0,94,0.00,,FEW,0.03,VWS V14.01,2013-01-06 03:37:00,
2013-01-05 19:42:00,38.6,37.0,30.03,WNW,301,0.0,0.0,94,0.00,,FEW,0.03,VWS V14.01,2013-01-06 03:42:00,
2013-01-05 19:47:00,38.5,37.2,30.03,WNW,301,0.0,0.0,95,0.00,,FEW,0.03,VWS V14.01,2013-01-06 03:47:00,
2013-01-05 19:52:00,38.5,37.2,30.03,WNW,301,0.0,0.0,95,0.00,,FEW,0.03,VWS V14.01,2013-01-06 03:52:00,
2013-01-05 19:57:00,38.5,37.2,30.03,WNW,301,0.0,0.0,95,0.00,,FEW,0.03,VWS V14.01,2013-01-06 03:57:00,
2013-01-05 20:02:00,38.5,37.2,30.03,WNW,301,0.0,0.0,95,0.00,,FEW,0.03,VWS V14.01,2013-01-06 04:02:00,
2013-01-05 20:07:00,38.5,37.2,30.03,WNW,301,0.0,0.0,95,0.00,,FEW,0.03,VWS V14.01,2013-01-06 04:07:00,
2013-01-05 20:12:00,38.5,37.2,30.03,WNW,301,0.0,0.0,95,0.00,,FEW,0.03,VWS V14.01,2013-01-06 04:12:00,
2013-01-05 20:17:00,38.5,37.2,30.03,WNW,300,0.0,0.0,95,0.00,,FEW,0.03,VWS V14.01,2013-01-06 04:17:00,
2013-01-05 20:22:00,38.5,37.2,30.03,WNW,301,0.0,0.0,95,0.00,,FEW,0.03,VWS V14.01,2013-01-06 04:22:00,
2013-01-05 20:28:00,38.6,37.3,30.03,WNW,301,0.0,0.0,95,0.00,,FEW,0.03,VWS V14.01,2013-01-06 04:28:00,
2013-01-05 20:33:00,38.6,37.3,30.04,WNW,301,0.0,0.0,95,0.00,,FEW,0.03,VWS V14.01,2013-01-06 04:33:00,
2013-01-05 20:38:00,38.8,37.5,30.04,WNW,301,0.0,0.0,95,0.00,,FEW,0.03,VWS V14.01,2013-01-06 04:38:00,
2013-01-05 20:43:00,38.8,37.5,30.04,WNW,301,0.0,0.0,95,0.00,,FEW,0.03,VWS V14.01,2013-01-06 04:43:00,
2013-01-05 20:48:00,38.8,37.5,30.04,WNW,301,0.0,0.0,95,0.00,,FEW,0.03,VWS V14.01,2013-01-06 04:48:00,
2013-01-05 20:53:00,38.8,37.5,30.04,WNW,301,0.0,0.0,95,0.00,,FEW,0.03,VWS V14.01,2013-01-06 04:53:00,
2013-01-05 20:58:00,38.8,37.5,30.04,WNW,301,0.0,0.0,95,0.00,,FEW,0.03,VWS V14.01,2013-01-06 04:58:00,
2013-01-05 21:00:00,38.8,37.5,30.04,WNW,301,0.0,0.0,95,0.00,,FEW,0.03,VWS V14.01,2013-01-06 05:00:00,
2013-01-05 21:02:00,38.8,37.5,30.04,WNW,301,0.0,0.0,95,0.00,,FEW,0.03,VWS V14.01,2013-01-06 05:02:00,
2013-01-05 21:03:00,38.8,37.5,30.04,WNW,301,0.0,0.0,95,0.00,,FEW,0.03,VWS V14.01,2013-01-06 05:03:00,
2013-01-05 21:05:00,38.8,37.5,30.04,WNW,301,0.0,0.0,95,0.00,,FEW,0.03,VWS V14.01,2013-01-06 05:05:00,
2013-01-05 21:10:00,38.8,37.5,30.04,WNW,301,0.0,0.0,95,0.00,,FEW,0.03,VWS V14.01,2013-01-06 05:10:00,
2013-01-05 21:15:00,38.8,37.5,30.05,WNW,301,0.0,0.0,95,0.00,,FEW,0.03,VWS V14.01,2013-01-06 05:15:00,
2013-01-05 21:20:00,38.8,37.5,30.05,WNW,301,0.0,0.0,95,0.00,,FEW,0.03,VWS V14.01,2013-01-06 05:20:00,
2013-01-05 21:25:00,38.8,37.5,30.05,WNW,301,0.0,0.0,95,0.00,,FEW,0.03,VWS V14.01,2013-01-06 05:25:00,
2013-01-05 21:30:00,38.8,37.5,30.05,WNW,301,0.0,0.0,95,0.00,,FEW,0.03,VWS V14.01,2013-01-06 05:30:00,
2013-01-05 21:35:00,38.8,37.5,30.05,WNW,301,0.0,0.0,95,0.00,,FEW,0.03,VWS V14.01,2013-01-06 05:35:00,
2013-01-05 21:40:00,38.8,37.5,30.05,WNW,301,0.0,0.0,95,0.00,,FEW,0.03,VWS V14.01,2013-01-06 05:40:00,
2013-01-05 21:45:00,38.6,37.3,30.05,WNW,301,0.0,0.0,95,0.00,,FEW,0.03,VWS V14.01,2013-01-06 05:45:00,
2013-01-05 21:50:00,38.6,37.3,30.05,WNW,301,0.0,0.0,95,0.00,,FEW,0.03,VWS V14.01,2013-01-06 05:50:00,
2013-01-05 21:55:00,38.8,37.5,30.05,WNW,301,0.0,0.0,95,0.00,,FEW,0.03,VWS V14.01,2013-01-06 05:55:00,
2013-01-05 22:00:00,38.8,37.5,30.06,WNW,301,0.0,0.0,95,0.00,,FEW,0.03,VWS V14.01,2013-01-06 06:00:00,
2013-01-05 22:05:00,38.8,37.5,30.06,WNW,301,0.0,0.0,95,0.00,,FEW,0.03,VWS V14.01,2013-01-06 06:05:00,
2013-01-05 22:10:00,38.9,37.6,30.06,WNW,301,0.0,0.0,95,0.00,,FEW,0.03,VWS V14.01,2013-01-06 06:10:00,
2013-01-05 22:15:00,38.9,37.9,30.06,WNW,301,0.0,1.0,96,0.00,,FEW,0.03,VWS V14.01,2013-01-06 06:15:00,
2013-01-05 22:20:00,38.9,37.6,30.06,WNW,301,0.0,1.0,95,0.00,,FEW,0.03,VWS V14.01,2013-01-06 06:20:00,
2013-01-05 22:25:00,38.9,37.6,30.06,WNW,301,0.0,1.0,95,0.01,,FEW,0.04,VWS V14.01,2013-01-06 06:25:00,
2013-01-05 22:30:00,38.9,37.6,30.06,WNW,301,0.0,0.0,95,0.01,,FEW,0.04,VWS V14.01,2013-01-06 06:30:00,
2013-01-05 22:35:00,39.1,38.1,30.06,WNW,301,0.0,0.0,96,0.01,,FEW,0.04,VWS V14.01,2013-01-06 06:35:00,
2013-01-05 22:41:00,39.1,38.1,30.06,WNW,301,0.0,0.0,96,0.01,,FEW,0.04,VWS V14.01,2013-01-06 06:41:00,
2013-01-05 22:46:00,39.2,38.2,30.06,WNW,301,0.0,0.0,96,0.01,,FEW,0.04,VWS V14.01,2013-01-06 06:46:00,
2013-01-05 22:51:00,39.2,38.2,30.06,WNW,301,0.0,0.0,96,0.01,,FEW,0.04,VWS V14.01,2013-01-06 06:51:00,
2013-01-05 22:56:00,39.2,38.2,30.06,WNW,301,0.0,0.0,96,0.02,,FEW,0.05,VWS V14.01,2013-01-06 06:56:00,
2013-01-05 23:01:00,39.1,37.8,30.07,WNW,301,0.0,0.0,95,0.02,,FEW,0.05,VWS V14.01,2013-01-06 07:01:00,
2013-01-05 23:06:00,38.9,37.9,30.07,WNW,301,0.0,1.0,96,0.02,,FEW,0.05,VWS V14.01,2013-01-06 07:06:00,
2013-01-05 23:11:00,39.1,38.1,30.07,WNW,301,0.0,1.0,96,0.03,,FEW,0.06,VWS V14.01,2013-01-06 07:11:00,
2013-01-05 23:16:00,39.1,38.1,30.07,WNW,301,0.0,1.0,96,0.03,,FEW,0.06,VWS V14.01,2013-01-06 07:16:00,
2013-01-05 23:21:00,39.1,38.1,30.07,WNW,301,0.0,1.0,96,0.03,,FEW,0.06,VWS V14.01,2013-01-06 07:21:00,
2013-01-05 23:26:00,39.2,38.2,30.07,WNW,301,0.0,1.0,96,0.03,,FEW,0.06,VWS V14.01,2013-01-06 07:26:00,
2013-01-05 23:31:00,39.2,38.2,30.08,WNW,301,0.0,0.0,96,0.02,,FEW,0.06,VWS V14.01,2013-01-06 07:31:00,
2013-01-05 23:36:00,39.2,38.2,30.08,WNW,301,0.0,0.0,96,0.02,,FEW,0.06,VWS V14.01,2013-01-06 07:36:00,
2013-01-05 23:41:00,39.3,38.3,30.08,WNW,301,0.0,0.0,96,0.03,,FEW,0.07,VWS V14.01,2013-01-06 07:41:00,
2013-01-05 23:46:00,39.3,38.3,30.08,WNW,301,0.0,0.0,96,0.03,,FEW,0.07,VWS V14.01,2013-01-06 07:46:00,
2013-01-05 23:51:00,39.2,38.2,30.08,WNW,301,0.0,0.0,96,0.03,,FEW,0.07,VWS V14.01,2013-01-06 07:51:00,
2013-01-05 23:56:00,39.2,38.2,30.08,WNW,301,0.0,0.0,96,0.03,,FEW,0.07,VWS V14.01,2013-01-06 07:56:00,